Wilmington, NC

4:21 AM EST on February 21, 2017 (GMT -0500)
Wilmington International

Weather History for KILM - January, 2012

Change the Weather History Date:

Wednesday, January 11, 2012

  Actual Average Record
Temperature  
Mean Temperature 56 °F 46 °F  
Max Temperature 64 °F 56 °F 80 °F (1974)
Min Temperature 47 °F 35 °F 8 °F (1982)
Degree Days  
Heating Degree Days 9 19  
Month to date heating degree days 172 209  
Since 1 July heating degree days 879 1093  
Cooling Degree Days 0 0  
Month to date cooling degree days 0 0  
Year to date cooling degree days 0 0  
Growing Degree Days 6 (Base 50)    
Moisture  
Dew Point 57 °F    
Average Humidity 88    
Maximum Humidity 100    
Minimum Humidity 75    
Precipitation  
Precipitation 1.18 in 0.13 in 3.16 in (1982)
Month to date precipitation 1.25 1.32  
Year to date precipitation 1.25 1.32  
Snow  
Snow 0.00 in 0.00 in 0.10 in (1968)
Month to date snowfall T 0.2  
Since 1 July snowfall T 1.0  
Snow Depth 0.00 in    
Sea Level Pressure  
Sea Level Pressure 29.76 in    
Wind  
Wind Speed 7 mph (SE)    
Max Wind Speed 18 mph    
Max Gust Speed 24 mph    
Visibility 8 miles    
Events Rain    
T = Trace of Precipitation, MM = Missing Value Source: NWS Daily Summary

Daily Weather History Graph

Daily Weather History Graph

Search for Another Location

Airport or City:

Trip Planner

Search our weather history database for the weather conditions in past years. The results will help you decide how hot, cold, wet, or windy it might be!

Date:

Astronomy

Jan. 11, 2012 Rise Set
Actual Time 7:18 AM EST 5:20 PM EST
Civil Twilight 6:50 AM EST 5:48 PM EST
Nautical Twilight 6:19 AM EST 6:19 PM EST
Astronomical Twilight 5:49 AM EST 6:49 PM EST
Moon 8:07 PM EST (1/11) 8:36 AM EST (1/11)
Length of Visible Light 10h 57m
Length of Day
10h 02m
Waning Gibbous, 93% of the Moon is Illuminated
Jan 11
Waning Gibbous
Jan 16
Last Quarter
Jan 23
New
Jan 30
First Quarter
Feb 7
Full

Hourly Weather History & Observations

Time (EST) Temp. Dew Point Humidity Pressure Visibility Wind Dir Wind Speed Gust Speed Precip Events Conditions
12:53 AM 48.9 °F 45.0 °F 86% 30.01 in 10.0 mi Calm Calm - N/A   Overcast
1:53 AM 50.0 °F 46.0 °F 86% 30.01 in 10.0 mi NE 3.5 mph - N/A   Overcast
2:53 AM 50.0 °F 46.0 °F 86% 30.00 in 10.0 mi Calm Calm - N/A   Overcast
3:03 AM 50.0 °F 46.4 °F 87% 30.00 in 10.0 mi Calm Calm - N/A   Overcast
3:53 AM 50.0 °F 46.0 °F 86% 29.98 in 10.0 mi NE 5.8 mph - 0.00 in Rain Light Rain
4:53 AM 51.1 °F 46.9 °F 86% 29.96 in 10.0 mi ENE 4.6 mph - 0.00 in Rain Light Rain
5:53 AM 54.0 °F 44.1 °F 69% 29.94 in 10.0 mi East 6.9 mph - 0.00 in Rain Light Rain
6:53 AM 54.0 °F 46.0 °F 75% 29.94 in 10.0 mi East 6.9 mph - 0.00 in   Mostly Cloudy
7:53 AM 55.0 °F 48.9 °F 80% 29.94 in 10.0 mi ENE 5.8 mph - N/A   Mostly Cloudy
8:53 AM 55.9 °F 48.9 °F 77% 29.93 in 10.0 mi ENE 9.2 mph - N/A   Overcast
9:53 AM 57.0 °F 51.1 °F 81% 29.92 in 10.0 mi East 8.1 mph - N/A   Overcast
10:53 AM 59.0 °F 52.0 °F 78% 29.89 in 10.0 mi East 5.8 mph - N/A   Overcast
11:53 AM 59.0 °F 57.0 °F 93% 29.85 in 6.0 mi ESE 5.8 mph - 0.01 in Rain Light Rain
12:01 PM 59.0 °F 57.2 °F 94% 29.84 in 6.0 mi ESE 5.8 mph - 0.01 in Rain Light Rain
12:08 PM 59.0 °F 57.2 °F 94% 29.83 in 6.0 mi ESE 6.9 mph - 0.02 in Rain Light Rain
12:18 PM 60.8 °F 57.2 °F 88% 29.83 in 5.0 mi ESE 5.8 mph - 0.02 in Rain Light Rain
12:53 PM 61.0 °F 60.1 °F 97% 29.80 in 5.0 mi ESE 5.8 mph - 0.03 in Rain Light Rain
1:10 PM 62.6 °F 60.8 °F 94% 29.78 in 10.0 mi ESE 6.9 mph - 0.01 in Rain Light Rain
1:20 PM 62.6 °F 60.8 °F 94% 29.76 in 2.0 mi ESE 9.2 mph - 0.01 in   Overcast
1:30 PM 62.6 °F 60.8 °F 94% 29.76 in 1.8 mi SE 6.9 mph - 0.03 in Rain Heavy Rain
1:38 PM 62.6 °F 60.8 °F 94% 29.75 in 3.0 mi ESE 6.9 mph - 0.07 in Rain Light Rain
1:45 PM 62.6 °F 62.6 °F 100% 29.75 in 9.0 mi SE 8.1 mph - 0.07 in   Overcast
1:53 PM 63.0 °F 61.0 °F 93% 29.75 in 10.0 mi SSW 3.5 mph - 0.07 in   Overcast
2:13 PM 62.6 °F 60.8 °F 94% 29.74 in 10.0 mi ESE 5.8 mph - N/A   Mostly Cloudy
2:24 PM 62.6 °F 60.8 °F 94% 29.73 in 10.0 mi ESE 3.5 mph - N/A   Mostly Cloudy
2:53 PM 63.0 °F 60.1 °F 90% 29.73 in 10.0 mi SE 6.9 mph - N/A   Mostly Cloudy
3:53 PM 64.0 °F 61.0 °F 90% 29.71 in 5.0 mi South 6.9 mph - 0.06 in Rain Rain
4:36 PM 62.6 °F 60.8 °F 94% 29.72 in 2.0 mi South 11.5 mph - 0.16 in Rain Rain
4:53 PM 63.0 °F 61.0 °F 93% 29.73 in 2.0 mi South 13.8 mph 19.6 mph 0.41 in Rain Heavy Rain
4:58 PM 62.6 °F 60.8 °F 94% 29.71 in 1.2 mi SSW 9.2 mph 19.6 mph 0.15 in Rain Heavy Rain
5:04 PM 62.6 °F 60.8 °F 94% 29.71 in 1.8 mi South 6.9 mph - 0.27 in Rain Heavy Rain
5:08 PM 62.6 °F 60.8 °F 94% 29.70 in 3.0 mi South 5.8 mph - 0.29 in Rain Heavy Rain
5:18 PM 62.6 °F 60.8 °F 94% 29.70 in 4.0 mi South 8.1 mph - 0.33 in Rain Rain
5:53 PM 62.1 °F 60.1 °F 93% 29.69 in 10.0 mi SSE 6.9 mph - 0.41 in Rain Light Rain
6:01 PM 62.6 °F 60.8 °F 94% 29.68 in 10.0 mi SSE 10.4 mph - 0.00 in Rain Light Rain
6:18 PM 62.6 °F 60.8 °F 94% 29.66 in 6.0 mi SSE 9.2 mph - 0.02 in Rain Rain
6:36 PM 62.6 °F 60.8 °F 94% 29.64 in 2.5 mi SE 12.7 mph 20.7 mph 0.15 in Rain Rain
6:43 PM 62.6 °F 60.8 °F 94% 29.65 in 6.0 mi SE 6.9 mph 20.7 mph 0.15 in Rain Light Rain
6:49 PM 62.6 °F 60.8 °F 94% 29.63 in 8.0 mi SE 6.9 mph - 0.16 in Rain Light Rain
6:53 PM 63.0 °F 61.0 °F 93% 29.63 in 8.0 mi ESE 5.8 mph - 0.16 in Rain Light Rain
7:04 PM 62.6 °F 60.8 °F 94% 29.63 in 5.0 mi SSE 9.2 mph - 0.02 in Rain Light Rain
7:11 PM 62.6 °F 60.8 °F 94% 29.63 in 8.0 mi SSE 6.9 mph - 0.02 in Rain Light Rain
7:24 PM 62.6 °F 60.8 °F 94% 29.62 in 10.0 mi SSE 8.1 mph - 0.02 in   Overcast
7:31 PM 62.6 °F 60.8 °F 94% 29.62 in 9.0 mi SSE 8.1 mph - 0.02 in Rain Light Rain
7:40 PM 62.6 °F 60.8 °F 94% 29.62 in 9.0 mi SSE 8.1 mph - 0.03 in Rain Light Rain
7:53 PM 63.0 °F 61.0 °F 93% 29.61 in 9.0 mi South 9.2 mph - 0.03 in   Overcast
8:53 PM 64.0 °F 61.0 °F 90% 29.59 in 10.0 mi SSW 10.4 mph - 0.00 in   Mostly Cloudy
9:45 PM 62.6 °F 59.0 °F 88% 29.59 in 10.0 mi SW 13.8 mph 21.9 mph N/A   Partly Cloudy
9:53 PM 62.1 °F 59.0 °F 90% 29.60 in 10.0 mi SW 15.0 mph - N/A   Partly Cloudy
10:53 PM 60.1 °F 57.0 °F 90% 29.61 in 10.0 mi SW 9.2 mph - N/A   Partly Cloudy
11:53 PM 60.1 °F 55.9 °F 86% 29.62 in 10.0 mi SW 11.5 mph - N/A   Scattered Clouds